Temp
66 66 66 66 66 66 67 67 67 67 67 68 66 69 65 64 58 57 55 57 58 64 68 64 65 69 67 64 67 65 66 61 59 61 60 56 53 52 52 51 50 50 50 50 50 48 48 48 49 52 53 53 53 52 51 51 51 51 51 51 52 53 53 53 53 56 57 59 58 57 56 56 56 56
67 67 67 67 65 67 66 67 66 66 67 65 68 66 67 64 61 61 58 56 60 60 64 66 65 67 67 68 65 65 63 62 66 65 62 58 54 52 52 51 49 50 50 49 49 48 49 49 50 52 52 52 51 51 50 50 50 51 50 50 51 52 53 53 53 55 57 57 56 56 55 55 55 55
67 66 65 65 65 67 66 66 67 66 67 68 67 65 66 65 64 63 61 55 58 62 59 63 69 66 68 70 64 66 65 65 64 63 61 61 55 53 52 50 51 50 50 49 49 50 50 50 49 50 51 52 51 51 50 50 51 50 49 49 50 52 52 52 52 54 54 54 55 55 54 54 54 55
68 66 65 65 66 67 67 67 67 66 66 67 66 66 66 65 64 64 61 58 56 60 61 62 65 68 65 67 66 64 67 66 60 63 62 61 54 55 54 50 51 51 50 50 51 53 53 51 50 50 51 50 50 50 48 49 51 49 48 48 49 50 51 51 50 51 52 52 53 54 53 53 53 54
68 68 67 66 67 67 65 67 66 68 69 67 67 66 65 65 65 63 62 59 57 61 63 63 64 66 66 67 68 66 64 62 62 64 64 60 57 59 57 54 50 50 50 49 50 50 51 50 50 49 48 47 47 49 49 49 49 48 46 46 47 48 50 50 49 49 50 51 52 52 52 52 53 53
69 66 65 67 65 68 67 65 71 70 69 70 70 69 67 65 65 65 64 61 58 56 61 62 66 63 66 63 69 64 61 62 62 65 67 68 66 66 61 57 54 50 51 49 49 51 52 51 50 49 48 48 48 48 48 47 46 47 45 44 45 48 48 48 47 47 48 49 50 50 51 52 52 53
68 66 64 64 66 68 65 67 66 67 69 71 71 67 67 65 65 67 66 62 60 58 58 61 63 62 63 61 65 68 66 66 68 66 67 68 70 70 65 63 59 51 50 49 51 51 53 52 50 49 49 48 47 47 48 47 46 46 46 45 45 45 45 45 46 46 47 48 49 49 50 50 52 54
67 65 64 64 66 66 65 65 65 65 66 66 67 66 65 64 66 65 63 65 63 60 59 61 65 64 60 63 68 71 69 65 63 64 66 68 70 69 70 68 66 55 49 50 50 52 55 52 50 49 48 48 49 48 47 47 47 46 46 46 45 44 44 44 44 45 47 47 47 49 49 50 51 54
66 66 64 66 66 67 65 64 64 66 65 68 66 66 67 67 66 65 63 64 64 61 59 60 62 63 65 67 66 68 67 67 66 67 66 67 65 64 65 68 69 54 49 50 50 52 52 51 50 49 49 49 49 48 48 48 48 48 48 47 46 45 44 44 44 44 44 44 45 47 48 49 51 53
67 66 67 67 66 67 66 64 64 63 65 66 65 66 66 68 65 62 63 63 62 62 62 62 61 62 63 62 64 66 64 63 63 63 64 64 63 62 61 63 69 69 64 58 58 53 51 51 49 50 51 50 49 49 49 49 49 48 47 46 45 45 45 44 44 43 43 43 43 43 44 45 48 51
67 69 69 68 67 67 67 66 65 65 65 64 63 63 63 66 63 63 63 64 62 61 60 61 61 61 62 60 58 65 66 65 63 59 57 57 62 60 59 59 64 64 64 62 58 58 57 55 55 54 51 50 50 50 49 49 49 48 46 45 45 45 44 44 44 44 43 43 42 42 42 42 44 46
67 66 66 66 66 65 63 63 63 63 62 64 64 63 63 62 62 61 61 61 61 60 60 60 60 59 58 60 61 67 65 60 59 61 58 54 54 57 57 58 59 61 60 59 63 61 56 55 56 53 53 54 52 51 50 50 50 49 46 44 44 44 44 44 44 44 43 42 42 43 42 42 42 44
62 62 63 65 63 61 59 54 56 56 58 61 60 62 64 63 61 60 60 60 58 58 59 58 60 59 59 59 58 56 56 55 55 58 58 56 56 56 56 59 61 64 59 60 61 62 60 59 57 59 60 62 59 54 50 52 52 49 46 45 44 45 45 45 45 45 43 42 42 42 42 42 42 42
62 62 62 63 58 57 58 57 52 51 49 51 58 58 59 60 60 60 60 60 60 59 57 56 57 58 57 58 56 56 57 57 58 55 55 52 53 54 54 55 56 60 59 57 56 59 62 59 58 59 58 59 56 55 52 51 52 48 46 46 46 45 46 45 44 44 44 43 42 42 42 42 42 41
61 61 61 62 61 60 60 59 52 50 48 47 48 48 48 52 57 58 58 58 58 58 57 57 57 55 54 56 58 56 56 56 55 53 53 53 52 51 49 47 53 58 57 55 54 55 58 59 57 59 58 57 58 58 55 52 51 48 46 47 46 46 47 46 45 44 44 43 43 42 41 42 42 41
62 62 61 60 62 61 61 62 61 53 46 44 42 42 44 43 41 46 54 57 56 54 54 55 55 55 53 53 53 53 53 53 53 52 52 52 51 49 48 48 48 54 57 53 51 51 56 57 55 54 57 59 57 60 55 48 50 48 47 47 47 47 47 46 45 45 44 44 43 43 42 42 42 41
63 61 60 60 60 64 60 60 62 60 51 43 41 41 43 43 45 46 46 48 54 57 55 54 54 53 53 53 52 53 53 53 51 50 50 50 49 48 48 47 49 53 56 52 50 49 53 55 54 53 55 56 56 57 55 53 48 48 48 48 48 47 46 46 46 45 44 43 43 43 44 43 43 43
62 61 60 59 59 61 61 61 62 60 56 52 52 51 53 52 46 42 43 47 48 53 56 55 55 55 55 52 53 54 54 52 50 50 48 49 48 47 48 50 51 54 56 52 50 48 50 53 52 51 54 56 55 55 54 52 51 48 48 48 47 46 46 46 46 46 45 44 44 44 44 43 43 43
62 62 62 61 61 61 61 60 58 60 58 57 56 55 55 54 54 53 52 51 53 56 58 57 55 53 53 54 53 52 53 52 51 51 49 49 49 50 50 51 52 53 56 54 49 46 48 51 51 51 53 55 55 55 52 52 52 49 48 48 47 46 46 46 46 45 45 45 45 44 44 43 43 43
63 63 62 60 61 61 59 48 44 49 58 59 58 57 56 54 50 47 45 41 44 48 51 51 51 49 47 45 47 46 49 49 49 50 50 49 48 47 46 45 49 49 53 54 52 48 48 51 51 49 53 53 52 53 54 52 53 52 50 47 46 46 46 46 46 46 45 45 45 45 44 44 44 43
61 60 61 61 59 56 55 45 45 44 51 60 58 57 55 54 52 49 48 43 40 41 40 40 40 39 40 41 41 41 42 45 48 49 46 45 46 43 42 44 44 45 49 52 52 48 45 48 49 49 50 51 50 52 53 53 51 50 50 46 45 45 45 45 46 46 45 45 45 45 44 44 44 44
56 54 49 55 58 56 53 41 41 43 54 59 58 57 55 54 51 49 50 51 46 40 40 39 40 42 42 40 42 42 40 39 44 46 43 47 46 44 43 41 43 45 48 48 49 47 44 48 48 47 49 49 49 49 51 52 52 49 47 45 44 45 45 45 46 45 45 45 45 45 45 44 44 44
57 53 49 49 54 53 46 38 40 43 51 58 58 57 56 54 52 50 51 50 47 48 48 46 46 45 42 44 45 46 41 41 44 46 47 47 45 43 43 43 43 42 44 49 50 45 43 45 45 45 44 42 46 49 49 50 52 51 51 51 52 49 48 48 47 46 45 44 44 45 44 44 43 43
55 52 50 45 41 40 40 40 40 41 45 56 58 58 56 53 52 54 53 52 51 51 51 50 49 48 48 46 47 48 47 44 46 47 48 47 47 45 44 45 43 42 43 47 49 44 44 44 43 46 44 40 38 44 47 48 49 49 50 50 47 48 49 49 47 46 45 44 44 44 44 44 43 43
54 52 48 45 41 40 40 40 41 43 44 46 52 51 49 49 47 51 52 48 49 52 51 50 51 51 49 49 49 49 49 47 46 46 46 47 47 47 44 43 43 43 46 48 47 46 42 43 43 44 44 44 43 43 45 45 47 47 48 48 47 49 48 49 48 49 48 47 45 43 43 43 45 46
51 49 47 44 41 39 40 41 41 42 43 44 49 45 40 37 41 51 52 52 50 51 51 49 49 50 51 51 51 51 51 48 48 48 48 49 49 47 47 44 42 41 43 48 45 46 42 42 42 41 43 42 42 43 41 42 44 45 46 47 46 47 47 47 47 47 47 47 48 47 47 46 46 46
51 47 46 44 40 39 40 41 42 42 43 44 44 39 39 39 40 45 53 51 52 51 51 50 49 48 48 49 49 48 47 48 48 48 48 48 47 46 47 48 47 45 45 47 48 45 43 40 42 41 41 42 40 41 41 39 41 44 44 44 45 46 46 45 45 45 46 46 46 46 46 45 45 45
49 46 45 43 39 39 40 40 41 42 43 43 39 39 38 41 43 47 50 50 51 47 49 48 48 48 49 47 47 47 48 48 48 48 47 48 47 47 47 46 47 47 46 47 46 45 44 43 43 44 43 42 40 38 38 42 42 43 42 45 45 45 45 44 45 44 43 44 44 45 45 46 46 47
47 43 40 38 38 39 39 39 40 40 38 37 39 39 39 42 48 49 51 51 50 48 47 48 48 49 47 48 48 49 47 47 47 46 48 47 45 46 46 44 44 45 47 47 45 46 47 46 44 44 44 44 41 41 41 40 41 42 43 42 42 44 45 46 45 45 44 44 41 41 43 45 46 47
40 39 39 39 39 40 42 47 47 45 44 39 39 37 38 46 48 51 49 49 47 47 46 46 46 46 46 46 48 46 47 45 45 45 43 42 43 43 42 41 41 43 44 44 46 47 48 47 45 44 44 44 43 41 42 41 40 42 42 42 43 44 45 46 46 46 46 45 43 41 44 45 46 46
41 40 41 42 42 43 42 43 42 42 40 40 42 44 44 47 50 48 46 46 46 46 47 45 45 45 46 48 45 44 44 44 45 44 43 41 42 42 41 40 40 41 43 43 46 46 47 47 47 46 43 43 43 43 43 42 40 41 42 43 43 38 43 46 45 45 45 45 45 45 44 45 45 46
45 44 41 42 44 44 46 46 45 45 45 45 45 47 48 48 47 45 44 46 46 48 46 46 45 43 45 44 44 44 44 43 42 44 42 41 39 40 41 39 38 40 41 44 46 47 45 47 45 45 44 43 41 43 43 42 41 41 41 43 43 44 44 43 44 44 45 45 44 43 44 45 45 46
45 45 45 44 44 45 42 42 42 46 46 44 47 51 50 49 47 46 44 45 45 46 44 43 42 40 43 43 43 42 41 42 42 42 40 40 41 41 41 39 40 39 39 40 42 44 45 46 47 46 45 45 45 44 42 39 41 42 41 41 42 42 43 44 43 44 45 43 41 41 41 43 44 45
43 42 41 41 42 42 42 43 43 43 43 42 42 41 42 44 45 44 45 46 45 42 42 43 40 40 40 39 41 41 39 40 40 40 40 38 40 39 38 37 39 40 39 40 41 42 43 44 44 45 45 45 45 45 44 41 40 41 42 42 42 41 42 43 43 44 43 41 40 38 38 39 43 45
44 43 43 43 42 41 43 41 42 43 43 42 42 41 43 43 41 42 42 43 40 40 42 40 41 41 40 40 38 37 37 37 38 38 40 41 40 40 39 37 38 38 39 39 39 41 42 42 42 41 40 41 40 43 46 46 42 41 41 41 41 41 41 42 42 42 42 41 40 37 35 36 38 43
44 45 44 43 43 43 43 42 42 43 43 42 42 42 41 40 41 40 39 42 42 40 41 41 40 39 41 40 38 37 36 37 37 39 38 38 37 37 38 38 37 38 39 39 39 41 41 40 40 37 35 35 34 34 36 43 44 42 39 37 39 39 40 41 40 40 39 38 39 37 35 35 37 41
45 45 44 43 46 45 43 43 44 45 45 43 43 43 40 40 40 42 42 39 42 40 40 40 38 40 40 37 37 37 38 36 36 36 36 37 38 38 36 35 35 37 37 39 40 40 40 39 39 37 34 33 32 32 35 38 40 43 42 37 36 39 39 37 35 34 36 38 38 38 37 36 36 40
45 45 44 46 48 49 45 45 43 42 43 43 42 42 43 44 45 46 44 43 40 40 41 40 39 39 37 39 39 38 36 37 37 37 37 37 36 36 35 35 35 36 37 38 39 39 40 38 37 36 35 32 32 32 33 36 36 39 43 41 37 37 35 33 32 32 34 37 38 39 39 36 36 38
49 46 46 45 48 47 44 44 43 43 46 43 42 41 41 43 44 41 41 40 40 38 39 39 39 40 39 39 39 39 38 38 38 37 37 36 36 36 35 35 35 36 36 35 37 38 38 37 37 36 36 34 32 33 33 32 33 37 39 41 39 36 35 35 35 35 35 36 37 38 38 39 41 41
47 47 48 48 49 49 47 47 44 44 43 43 43 44 43 40 40 40 39 38 38 39 38 38 40 39 39 37 38 38 37 37 37 37 36 36 35 36 35 35 35 35 35 35 35 36 37 37 37 37 36 36 36 37 36 36 36 37 36 38 39 38 37 37 34 34 34 36 36 34 34 35 34 37
46 48 47 49 49 49 47 47 47 45 45 45 45 43 42 43 40 39 38 38 39 40 39 38 38 40 40 40 39 39 37 37 36 35 36 35 35 35 35 35 35 35 34 34 35 35 36 38 39 36 37 37 37 36 35 33 32 34 36 37 37 37 37 38 37 35 33 34 33 32 32 32 33 35
44 46 48 49 50 49 49 48 48 45 44 43 42 40 40 41 40 41 39 39 39 37 37 37 39 39 37 37 36 36 35 34 34 33 34 33 34 35 35 35 35 35 35 34 35 36 39 41 39 39 37 37 36 33 32 33 33 35 36 38 35 35 37 37 37 36 34 32 31 30 31 33 34 33
45 46 44 46 49 49 48 47 47 44 42 42 40 40 40 39 38 38 38 37 37 38 39 37 37 36 36 35 35 36 35 33 34 35 35 35 35 35 35 35 35 36 36 36 37 37 37 38 38 37 36 36 35 34 33 33 34 35 35 36 35 34 34 36 36 35 35 34 34 32 32 31 30 30
45 45 47 48 47 48 48 47 45 42 42 41 40 41 42 41 38 39 39 38 38 38 37 37 36 35 35 36 36 37 36 35 36 36 36 36 35 35 35 36 36 35 36 36 36 36 37 37 37 36 35 35 35 34 33 34 34 35 35 36 37 35 33 32 32 33 34 35 34 33 33 33 33 33
47 45 46 45 43 44 44 44 43 42 43 41 40 41 40 39 39 38 39 39 38 37 37 36 35 35 35 35 35 35 37 39 38 37 37 36 37 36 36 36 35 36 36 36 35 35 36 36 36 36 35 35 35 35 35 34 34 35 35 35 35 35 34 34 33 32 32 33 33 33 33 34 34 34
MSLP
1019.83 1019.86 1019.91 1020.03 1020.10 1020.07 1019.91 1019.83 1019.83 1019.71 1019.62 1019.62 1019.98 1020.18 1020.51 1021.07 1021.83 1022.39 1022.91 1022.91 1022.86 1022.71 1022.47 1023.18 1023.15 1022.86 1023.03 1023.15 1023.22 1023.47 1023.62 1023.83 1023.91 1023.98 1024.06 1024.15 1024.27 1024.39 1024.39 1024.43 1024.39 1024.34 1024.27 1024.22 1024.22 1024.22 1024.22 1024.15 1024.10 1024.03 1023.98 1023.98 1023.95 1023.91 1023.86 1023.83 1023.74 1023.66 1023.62 1023.51 1023.39 1023.30 1023.18 1023.10 1022.95 1022.78 1022.66 1022.59 1022.54 1022.47 1022.39 1022.30 1022.30 1022.27
1019.91 1020.03 1020.15 1020.22 1020.34 1020.22 1020.15 1020.15 1019.95 1019.86 1019.91 1019.98 1020.10 1020.51 1020.59 1020.66 1021.51 1021.66 1022.71 1023.18 1022.78 1022.98 1022.66 1022.66 1023.07 1022.91 1023.07 1023.03 1023.18 1023.30 1023.47 1023.51 1023.51 1023.62 1023.78 1023.91 1024.10 1024.27 1024.34 1024.43 1024.46 1024.39 1024.31 1024.22 1024.19 1024.22 1024.27 1024.22 1024.19 1024.10 1024.03 1023.98 1023.95 1023.91 1023.83 1023.78 1023.71 1023.62 1023.59 1023.54 1023.47 1023.34 1023.22 1023.18 1023.10 1022.95 1022.78 1022.66 1022.59 1022.54 1022.51 1022.42 1022.34 1022.30
1020.03 1020.22 1020.42 1020.39 1020.42 1020.30 1020.30 1020.27 1020.22 1020.18 1020.18 1020.10 1020.27 1020.47 1020.54 1020.71 1021.10 1021.62 1022.18 1023.27 1023.18 1022.66 1023.30 1022.95 1022.78 1022.95 1022.95 1022.98 1023.18 1023.30 1023.42 1023.47 1023.47 1023.42 1023.62 1023.74 1023.98 1024.19 1024.34 1024.43 1024.46 1024.43 1024.31 1024.10 1024.03 1024.03 1024.06 1024.15 1024.19 1024.15 1024.10 1024.03 1023.98 1023.91 1023.86 1023.83 1023.71 1023.66 1023.59 1023.54 1023.47 1023.34 1023.30 1023.27 1023.22 1023.10 1023.03 1022.91 1022.78 1022.66 1022.59 1022.51 1022.42 1022.34
1020.15 1020.30 1020.47 1020.47 1020.47 1020.34 1020.39 1020.47 1020.47 1020.47 1020.34 1020.34 1020.42 1020.59 1020.78 1020.91 1020.98 1021.47 1022.27 1022.98 1023.51 1022.91 1022.91 1022.98 1022.91 1022.91 1022.98 1022.86 1023.18 1023.34 1023.42 1023.34 1023.34 1023.39 1023.42 1023.54 1023.83 1024.06 1024.19 1024.27 1024.31 1024.31 1024.31 1024.10 1023.83 1023.74 1023.78 1023.91 1023.98 1023.98 1023.98 1023.95 1023.86 1023.83 1023.78 1023.74 1023.71 1023.66 1023.66 1023.62 1023.54 1023.47 1023.34 1023.30 1023.27 1023.22 1023.10 1023.03 1022.91 1022.74 1022.66 1022.51 1022.39 1022.27
1020.18 1020.39 1020.54 1020.51 1020.39 1020.34 1020.54 1020.59 1020.62 1020.54 1020.54 1020.47 1020.54 1020.59 1020.78 1021.03 1021.15 1021.54 1022.18 1022.83 1023.22 1022.98 1022.54 1022.66 1022.91 1022.91 1022.91 1022.95 1022.83 1023.18 1023.27 1023.30 1023.30 1023.22 1023.15 1023.30 1023.47 1023.71 1023.78 1023.95 1024.06 1024.10 1024.10 1023.98 1023.74 1023.59 1023.59 1023.66 1023.74 1023.78 1023.74 1023.71 1023.66 1023.62 1023.59 1023.59 1023.62 1023.62 1023.66 1023.66 1023.66 1023.59 1023.51 1023.42 1023.34 1023.30 1023.18 1023.07 1022.91 1022.78 1022.62 1022.47 1022.34 1022.18
1020.30 1020.47 1020.66 1020.74 1020.66 1020.51 1020.66 1020.83 1020.74 1020.66 1020.59 1020.66 1020.74 1020.74 1020.95 1021.15 1021.22 1021.18 1021.83 1022.34 1022.86 1023.27 1022.91 1022.74 1022.62 1022.86 1022.71 1023.03 1022.62 1023.07 1023.30 1023.22 1023.10 1023.03 1022.98 1022.91 1022.83 1022.98 1023.27 1023.62 1023.78 1023.74 1023.71 1023.71 1023.62 1023.47 1023.34 1023.39 1023.47 1023.54 1023.51 1023.51 1023.47 1023.42 1023.42 1023.47 1023.51 1023.59 1023.62 1023.66 1023.66 1023.62 1023.59 1023.54 1023.47 1023.39 1023.27 1023.10 1022.95 1022.78 1022.62 1022.47 1022.27 1022.10
1020.42 1020.66 1020.86 1020.98 1020.91 1020.83 1020.95 1020.91 1020.83 1020.71 1020.78 1020.83 1020.83 1021.03 1021.10 1021.39 1021.51 1021.51 1021.74 1022.07 1022.74 1023.10 1023.03 1022.59 1022.71 1022.74 1022.74 1022.83 1022.66 1022.62 1022.71 1022.71 1022.83 1022.95 1022.78 1022.62 1022.62 1022.71 1022.78 1023.07 1023.27 1023.42 1023.59 1023.71 1023.59 1023.39 1023.15 1023.15 1023.18 1023.22 1023.27 1023.27 1023.27 1023.22 1023.27 1023.27 1023.34 1023.42 1023.51 1023.59 1023.59 1023.62 1023.59 1023.51 1023.42 1023.34 1023.27 1023.15 1022.98 1022.86 1022.71 1022.51 1022.27 1022.03
1020.62 1020.78 1021.03 1021.10 1021.07 1021.03 1021.15 1021.10 1021.03 1020.91 1020.91 1020.95 1020.98 1021.07 1021.15 1021.22 1021.47 1021.59 1021.66 1021.83 1022.03 1022.39 1022.98 1022.71 1022.59 1022.66 1022.71 1022.83 1022.54 1022.18 1022.18 1022.66 1022.91 1022.86 1022.71 1022.54 1022.71 1022.66 1022.71 1022.66 1022.86 1023.27 1023.51 1023.51 1023.47 1023.18 1022.95 1022.86 1022.91 1022.98 1023.03 1023.03 1023.03 1023.03 1023.07 1023.07 1023.15 1023.27 1023.39 1023.47 1023.47 1023.47 1023.47 1023.42 1023.34 1023.27 1023.18 1023.15 1023.07 1022.86 1022.66 1022.51 1022.27 1021.98
1020.59 1020.83 1020.98 1021.07 1021.07 1021.15 1021.30 1021.30 1021.27 1021.15 1021.27 1021.30 1021.30 1021.10 1021.27 1021.30 1021.42 1021.62 1021.78 1021.91 1021.86 1022.18 1022.47 1022.59 1022.47 1022.42 1022.42 1022.34 1022.39 1022.18 1022.27 1022.39 1022.39 1022.39 1022.47 1022.59 1022.78 1022.86 1022.74 1022.66 1022.62 1022.91 1023.22 1023.22 1023.22 1023.03 1022.78 1022.71 1022.74 1022.83 1022.83 1022.83 1022.83 1022.83 1022.91 1022.91 1022.95 1023.07 1023.18 1023.34 1023.39 1023.39 1023.39 1023.34 1023.30 1023.27 1023.22 1023.18 1023.10 1022.95 1022.74 1022.54 1022.30 1022.03
1020.54 1020.74 1020.86 1020.95 1021.07 1021.18 1021.34 1021.42 1021.39 1021.42 1021.42 1021.34 1021.47 1021.62 1021.71 1021.71 1021.74 1021.83 1021.86 1021.83 1021.91 1022.10 1022.30 1022.34 1022.54 1022.30 1022.47 1022.39 1022.27 1021.95 1022.10 1022.54 1022.47 1022.47 1022.74 1022.66 1022.71 1022.74 1022.78 1022.74 1022.71 1022.78 1022.91 1023.03 1022.98 1022.86 1022.74 1022.66 1022.66 1022.66 1022.66 1022.66 1022.62 1022.62 1022.66 1022.71 1022.71 1022.86 1023.03 1023.15 1023.22 1023.27 1023.27 1023.30 1023.27 1023.27 1023.22 1023.22 1023.18 1023.10 1022.95 1022.71 1022.42 1022.15
1020.54 1020.62 1020.71 1020.86 1020.95 1021.15 1021.27 1021.42 1021.51 1021.54 1021.59 1021.66 1021.71 1021.74 1021.74 1021.78 1021.98 1022.07 1021.91 1021.95 1022.18 1022.34 1022.34 1022.22 1022.18 1022.34 1022.22 1022.30 1022.54 1022.15 1022.10 1022.30 1022.51 1023.10 1023.15 1023.22 1023.03 1022.98 1023.03 1023.07 1022.91 1022.83 1022.74 1022.59 1022.54 1022.51 1022.47 1022.47 1022.47 1022.47 1022.47 1022.47 1022.42 1022.30 1022.42 1022.42 1022.42 1022.66 1022.86 1022.98 1023.03 1023.07 1023.10 1023.15 1023.15 1023.10 1023.15 1023.15 1023.15 1023.07 1022.98 1022.83 1022.62 1022.34
1020.62 1020.86 1020.86 1020.91 1021.10 1021.39 1021.54 1021.71 1021.71 1021.71 1021.86 1021.78 1021.86 1021.83 1021.83 1021.86 1022.03 1022.15 1022.07 1021.98 1022.15 1022.22 1022.27 1022.34 1022.30 1022.18 1022.22 1022.10 1021.98 1021.95 1022.15 1022.47 1022.66 1022.83 1023.03 1023.34 1023.30 1023.18 1023.03 1022.98 1023.10 1022.91 1022.74 1022.74 1022.62 1022.51 1022.54 1022.51 1022.42 1022.39 1022.30 1022.22 1022.03 1021.95 1022.10 1022.15 1022.18 1022.47 1022.62 1022.83 1022.86 1022.86 1022.95 1022.98 1022.91 1022.91 1022.98 1023.07 1023.03 1022.95 1022.86 1022.78 1022.62 1022.47
1020.95 1021.03 1021.07 1021.22 1021.47 1021.59 1021.71 1021.78 1021.86 1021.95 1021.98 1022.03 1022.10 1021.98 1021.91 1021.98 1022.07 1022.10 1022.10 1022.15 1022.34 1022.42 1022.42 1022.47 1022.18 1022.10 1022.15 1022.10 1022.27 1022.59 1022.66 1022.74 1022.95 1022.78 1022.86 1023.15 1023.15 1023.15 1023.10 1023.03 1022.98 1022.86 1022.78 1022.74 1022.74 1022.66 1022.59 1022.62 1022.59 1022.47 1022.34 1022.07 1021.74 1021.71 1021.86 1021.91 1022.03 1022.27 1022.42 1022.59 1022.66 1022.66 1022.74 1022.74 1022.54 1022.62 1022.78 1022.91 1022.91 1022.83 1022.71 1022.59 1022.47 1022.39
1021.03 1021.03 1021.07 1021.22 1021.34 1021.51 1021.62 1021.78 1021.91 1021.98 1022.03 1022.10 1022.10 1022.18 1022.18 1022.15 1022.18 1022.18 1022.27 1022.39 1022.42 1022.51 1022.59 1022.54 1022.34 1022.34 1022.30 1022.34 1022.42 1022.47 1022.34 1022.34 1022.51 1022.91 1023.15 1023.34 1023.27 1023.22 1023.27 1023.18 1022.98 1022.86 1022.98 1023.10 1023.03 1022.83 1022.71 1022.71 1022.54 1022.42 1022.27 1021.95 1021.78 1021.74 1021.74 1021.78 1021.78 1021.95 1022.15 1022.30 1022.42 1022.47 1022.51 1022.39 1022.27 1022.42 1022.54 1022.62 1022.66 1022.62 1022.54 1022.47 1022.30 1022.18
1021.07 1021.07 1021.03 1021.03 1021.18 1021.30 1021.47 1021.54 1021.71 1021.91 1022.07 1022.15 1022.18 1022.30 1022.34 1022.39 1022.30 1022.34 1022.39 1022.34 1022.39 1022.51 1022.59 1022.34 1022.34 1022.54 1022.83 1022.83 1022.54 1022.59 1022.71 1022.86 1022.91 1023.10 1023.22 1023.39 1023.42 1023.47 1023.51 1023.62 1023.22 1023.03 1023.18 1023.34 1023.30 1022.91 1022.71 1022.74 1022.59 1022.30 1022.10 1021.98 1021.86 1021.66 1021.59 1021.59 1021.71 1021.83 1022.03 1022.10 1022.18 1022.27 1022.27 1022.03 1022.15 1022.27 1022.30 1022.34 1022.39 1022.39 1022.34 1022.27 1022.15 1022.03
1020.91 1020.98 1021.03 1020.95 1020.91 1020.91 1021.03 1021.22 1021.47 1021.78 1022.18 1022.27 1022.34 1022.42 1022.47 1022.59 1022.66 1022.62 1022.54 1022.47 1022.42 1022.66 1022.71 1022.66 1022.62 1022.62 1022.83 1022.95 1023.03 1023.22 1023.18 1023.30 1023.18 1023.27 1023.39 1023.47 1023.51 1023.54 1023.74 1023.74 1023.78 1023.30 1023.34 1023.54 1023.54 1023.22 1022.78 1022.54 1022.42 1022.27 1022.07 1021.91 1021.74 1021.62 1021.59 1021.66 1021.62 1021.71 1021.83 1021.95 1021.98 1022.03 1021.86 1021.91 1021.98 1022.03 1022.07 1022.07 1022.03 1021.98 1021.98 1021.86 1021.74 1021.66
1020.66 1020.86 1020.98 1021.03 1020.95 1020.71 1020.83 1021.15 1021.27 1021.54 1022.15 1022.39 1022.42 1022.51 1022.59 1022.66 1022.62 1022.59 1022.62 1022.59 1022.54 1022.54 1022.66 1022.78 1022.83 1022.98 1022.98 1023.22 1023.51 1023.47 1023.47 1023.39 1023.47 1023.51 1023.59 1023.66 1023.78 1023.91 1024.03 1023.91 1023.83 1023.59 1023.42 1023.51 1023.47 1023.22 1022.66 1022.51 1022.30 1022.18 1021.83 1021.66 1021.59 1021.54 1021.47 1021.51 1021.66 1021.74 1021.78 1021.78 1021.83 1021.74 1021.74 1021.78 1021.78 1021.74 1021.71 1021.71 1021.66 1021.62 1021.59 1021.54 1021.47 1021.39
1020.47 1020.66 1020.78 1020.91 1020.83 1020.62 1020.71 1020.95 1021.18 1021.51 1021.95 1022.18 1022.27 1022.42 1022.42 1022.54 1022.71 1022.62 1022.59 1022.59 1022.54 1022.51 1022.62 1022.78 1022.91 1022.98 1022.98 1023.27 1023.39 1023.42 1023.39 1023.51 1023.74 1023.91 1024.06 1024.06 1024.15 1024.19 1024.19 1023.98 1023.86 1023.54 1023.30 1023.34 1023.27 1023.18 1022.78 1022.30 1022.03 1021.91 1021.71 1021.59 1021.51 1021.47 1021.42 1021.42 1021.54 1021.66 1021.66 1021.62 1021.59 1021.59 1021.59 1021.54 1021.42 1021.30 1021.34 1021.39 1021.39 1021.47 1021.42 1021.34 1021.22 1021.15
1020.10 1020.27 1020.39 1020.47 1020.42 1020.42 1020.47 1020.74 1020.83 1021.07 1021.47 1021.78 1021.98 1022.10 1022.18 1022.39 1022.62 1022.78 1022.86 1022.86 1022.83 1022.66 1022.62 1022.71 1023.03 1023.30 1023.42 1023.59 1023.66 1023.71 1023.74 1023.91 1024.06 1024.22 1024.31 1024.31 1024.27 1024.10 1023.95 1023.83 1023.59 1023.39 1023.10 1022.98 1023.03 1022.91 1022.30 1022.07 1022.10 1022.03 1021.83 1021.71 1021.62 1021.54 1021.51 1021.51 1021.51 1021.54 1021.47 1021.34 1021.34 1021.39 1021.39 1021.18 1020.98 1020.91 1021.03 1021.10 1021.18 1021.27 1021.22 1021.10 1020.98 1020.86
1019.91 1019.86 1019.98 1020.18 1020.22 1020.15 1020.47 1021.10 1021.07 1021.03 1021.15 1021.42 1021.71 1021.86 1022.03 1022.54 1022.86 1023.18 1023.59 1023.59 1023.34 1023.15 1023.15 1023.27 1023.39 1023.66 1023.86 1023.86 1023.95 1024.06 1024.10 1024.19 1024.27 1024.27 1024.31 1024.27 1024.22 1024.19 1024.15 1024.03 1023.59 1023.42 1023.03 1022.91 1022.95 1022.91 1022.71 1022.34 1022.30 1022.18 1022.03 1021.95 1021.95 1021.83 1021.78 1021.62 1021.51 1021.34 1021.22 1021.27 1021.30 1021.27 1021.18 1021.03 1020.86 1020.78 1020.91 1020.95 1020.98 1021.03 1020.98 1020.91 1020.78 1020.66
1019.95 1019.86 1019.86 1019.98 1020.27 1020.34 1020.54 1021.22 1021.27 1021.10 1021.07 1021.22 1021.47 1021.62 1021.98 1022.39 1022.66 1023.10 1023.42 1023.54 1023.47 1023.42 1023.47 1023.54 1023.66 1023.78 1023.86 1023.98 1024.15 1024.19 1024.27 1024.31 1024.34 1024.39 1024.43 1024.34 1024.34 1024.62 1024.67 1024.34 1023.95 1023.62 1023.47 1023.18 1023.10 1023.27 1023.15 1022.74 1022.74 1022.59 1022.42 1022.34 1022.34 1022.10 1021.86 1021.66 1021.47 1021.39 1021.30 1021.39 1021.47 1021.51 1021.47 1021.34 1021.15 1021.07 1020.98 1020.86 1020.83 1020.86 1020.83 1020.74 1020.62 1020.54
1020.27 1020.15 1020.07 1019.95 1020.27 1020.42 1020.86 1021.62 1021.34 1021.27 1021.03 1021.03 1021.15 1021.47 1021.83 1022.22 1022.66 1023.03 1023.27 1023.30 1023.51 1023.66 1023.71 1023.78 1023.86 1023.95 1024.03 1024.10 1024.15 1024.27 1024.34 1024.39 1024.39 1024.39 1024.46 1024.31 1024.46 1024.62 1024.51 1024.46 1024.06 1023.78 1023.59 1023.34 1023.34 1023.27 1023.30 1023.10 1022.95 1022.91 1022.54 1022.51 1022.30 1022.27 1022.10 1021.91 1021.78 1021.71 1021.62 1021.62 1021.66 1021.66 1021.54 1021.34 1021.18 1020.98 1020.83 1020.78 1020.78 1020.74 1020.66 1020.59 1020.71 1020.83
1020.39 1020.34 1020.18 1019.95 1020.03 1020.34 1021.22 1021.62 1021.42 1021.22 1021.03 1020.91 1020.91 1021.18 1021.54 1021.95 1022.34 1022.74 1022.98 1023.15 1023.30 1023.54 1023.62 1023.71 1023.83 1023.86 1024.03 1024.15 1024.22 1024.19 1024.22 1024.22 1024.39 1024.43 1024.39 1024.34 1024.43 1024.46 1024.34 1024.22 1024.03 1023.91 1023.54 1023.39 1023.42 1023.62 1023.59 1023.54 1023.30 1023.30 1023.15 1023.07 1022.66 1022.54 1022.34 1022.22 1022.03 1021.91 1021.78 1021.66 1021.54 1021.51 1021.42 1021.30 1021.10 1020.91 1020.83 1020.83 1020.74 1020.66 1020.59 1020.62 1020.78 1020.71
1020.18 1020.42 1020.42 1020.39 1020.27 1020.59 1021.10 1021.42 1021.39 1021.18 1020.98 1020.71 1020.66 1020.91 1021.30 1021.59 1022.07 1022.47 1022.74 1022.98 1023.15 1023.34 1023.39 1023.42 1023.59 1023.59 1023.74 1023.98 1024.10 1024.03 1023.98 1024.31 1024.55 1024.39 1024.22 1024.19 1024.19 1024.22 1024.19 1024.10 1023.98 1023.98 1023.74 1023.47 1023.51 1023.74 1023.62 1023.62 1023.66 1023.54 1023.66 1023.71 1023.30 1022.74 1022.71 1022.59 1022.54 1022.42 1022.27 1022.07 1021.95 1021.71 1021.51 1021.30 1021.18 1021.03 1020.86 1020.74 1020.62 1020.59 1020.54 1020.59 1020.59 1020.47
1020.10 1020.59 1020.95 1021.27 1020.91 1020.39 1020.66 1021.18 1021.30 1021.18 1021.15 1021.15 1021.42 1021.62 1021.98 1022.27 1022.42 1022.42 1022.74 1022.95 1022.95 1023.03 1023.18 1023.22 1023.18 1023.18 1023.30 1023.59 1023.74 1023.83 1023.91 1023.98 1024.27 1024.62 1024.62 1024.55 1024.46 1024.46 1024.58 1024.58 1024.55 1024.46 1024.15 1023.78 1023.66 1023.71 1023.78 1023.71 1023.74 1023.74 1023.74 1023.83 1023.62 1023.42 1023.10 1023.27 1023.03 1022.95 1022.66 1022.51 1022.27 1021.95 1021.78 1021.59 1021.42 1021.18 1020.91 1020.71 1020.62 1020.54 1020.51 1020.51 1020.27 1019.95
1020.59 1020.86 1021.42 1021.78 1021.86 1021.47 1021.10 1021.10 1021.39 1021.39 1021.39 1021.54 1021.78 1022.22 1022.30 1022.47 1022.39 1022.51 1022.66 1022.78 1022.98 1023.10 1023.10 1023.07 1023.03 1023.07 1023.15 1023.18 1023.22 1023.18 1023.39 1024.06 1024.31 1024.27 1024.31 1024.31 1024.31 1024.31 1024.31 1024.27 1024.31 1024.34 1024.15 1023.98 1023.98 1024.03 1024.10 1024.06 1024.10 1024.27 1024.19 1024.22 1023.98 1024.06 1023.78 1023.51 1023.27 1022.98 1022.86 1022.71 1022.51 1022.22 1022.03 1021.78 1021.54 1021.27 1021.03 1020.86 1020.71 1020.51 1020.34 1020.18 1020.07 1019.91
1020.59 1021.42 1022.07 1022.30 1022.10 1021.83 1021.74 1021.62 1021.59 1021.47 1021.54 1021.78 1022.18 1022.34 1022.39 1022.54 1022.66 1022.66 1022.59 1022.59 1022.74 1022.83 1022.86 1022.86 1022.98 1023.07 1023.18 1023.27 1023.34 1023.47 1023.71 1023.91 1023.86 1023.86 1023.95 1023.98 1023.98 1023.95 1023.95 1023.98 1024.06 1024.22 1024.22 1024.15 1024.06 1024.06 1024.06 1024.15 1023.98 1024.22 1024.39 1024.31 1024.31 1024.03 1024.03 1023.74 1023.27 1023.03 1022.91 1022.71 1022.51 1022.30 1022.10 1021.91 1021.71 1021.42 1021.18 1020.91 1020.71 1020.51 1020.34 1020.18 1020.07 1019.95
1020.42 1020.98 1021.66 1022.47 1022.91 1022.42 1021.78 1021.59 1021.74 1021.62 1021.62 1022.03 1022.34 1022.39 1022.51 1022.59 1022.62 1022.54 1022.51 1022.54 1022.71 1022.78 1022.83 1022.95 1023.07 1023.15 1023.22 1023.34 1023.51 1023.66 1023.78 1023.83 1023.91 1023.98 1024.03 1024.06 1024.06 1024.03 1023.98 1023.98 1024.06 1024.10 1024.10 1024.10 1024.06 1024.06 1024.03 1024.03 1023.98 1024.03 1024.15 1024.22 1024.27 1024.22 1024.03 1023.54 1023.39 1023.15 1023.03 1022.62 1022.51 1022.27 1022.03 1021.91 1021.71 1021.47 1021.18 1020.98 1020.83 1020.66 1020.51 1020.34 1020.15 1020.03
1020.59 1020.86 1021.62 1022.34 1022.74 1022.47 1022.18 1021.95 1021.95 1021.95 1022.10 1022.27 1022.34 1022.54 1022.66 1022.74 1022.71 1022.62 1022.51 1022.54 1022.71 1022.83 1022.86 1022.86 1022.98 1023.18 1023.34 1023.51 1023.74 1023.86 1023.86 1023.91 1024.03 1024.10 1024.19 1024.22 1024.19 1024.06 1024.03 1024.06 1024.15 1024.22 1024.22 1024.19 1024.19 1024.10 1024.03 1024.03 1024.03 1023.98 1023.98 1023.98 1024.10 1023.91 1023.91 1023.62 1023.39 1023.10 1022.98 1022.91 1022.62 1022.22 1022.07 1021.86 1021.62 1021.42 1021.22 1021.07 1020.86 1020.71 1020.59 1020.39 1020.18 1020.03
1020.34 1020.62 1020.83 1021.59 1022.15 1022.34 1022.22 1022.03 1021.98 1022.10 1022.22 1022.39 1022.62 1022.78 1022.95 1022.91 1022.78 1022.59 1022.62 1022.74 1022.83 1022.91 1022.95 1023.07 1023.30 1023.47 1023.62 1023.78 1023.91 1023.91 1023.95 1024.06 1024.19 1024.22 1024.34 1024.31 1024.27 1024.19 1024.15 1024.27 1024.34 1024.31 1024.31 1024.22 1024.19 1024.10 1024.03 1023.95 1023.91 1023.91 1023.91 1023.86 1023.86 1023.86 1023.71 1023.59 1023.34 1023.10 1022.98 1022.95 1022.62 1022.22 1021.95 1021.74 1021.59 1021.39 1021.27 1021.07 1020.86 1020.71 1020.51 1020.34 1020.10 1019.95
1020.83 1020.91 1021.03 1021.30 1021.62 1021.91 1021.83 1021.83 1021.95 1022.15 1022.42 1022.54 1022.62 1022.74 1022.86 1022.86 1022.83 1022.86 1023.03 1023.10 1023.07 1023.10 1023.15 1023.30 1023.59 1023.74 1023.86 1023.95 1024.03 1024.06 1024.10 1024.10 1024.10 1024.15 1024.27 1024.39 1024.43 1024.39 1024.46 1024.58 1024.62 1024.55 1024.39 1024.31 1024.19 1024.10 1023.98 1023.91 1023.83 1023.74 1023.83 1023.71 1023.62 1023.59 1023.42 1023.42 1023.30 1023.07 1022.78 1022.62 1022.54 1022.62 1021.91 1021.71 1021.51 1021.39 1021.27 1021.15 1020.95 1020.71 1020.51 1020.27 1020.07 1019.86
1020.54 1020.78 1021.07 1021.27 1021.51 1021.71 1021.78 1021.95 1022.18 1022.34 1022.39 1022.34 1022.42 1022.59 1022.59 1022.74 1022.86 1022.98 1023.03 1023.07 1023.18 1023.22 1023.34 1023.62 1023.83 1024.03 1024.10 1024.19 1024.19 1024.10 1024.10 1024.22 1024.43 1024.51 1024.55 1024.67 1024.74 1024.70 1024.74 1024.91 1024.91 1024.79 1024.58 1024.34 1024.15 1023.98 1023.91 1023.83 1023.74 1023.66 1023.62 1023.59 1023.59 1023.30 1023.22 1023.15 1023.07 1022.86 1022.66 1022.42 1022.34 1022.10 1021.86 1021.74 1021.59 1021.42 1021.27 1021.15 1020.98 1020.78 1020.62 1020.42 1020.15 1019.91
1020.47 1020.54 1020.71 1021.07 1021.34 1021.42 1021.54 1021.83 1022.03 1022.18 1022.22 1022.18 1022.15 1022.10 1022.18 1022.51 1022.71 1022.86 1023.03 1023.18 1023.42 1023.62 1023.74 1023.98 1024.19 1024.31 1024.34 1024.39 1024.31 1024.31 1024.43 1024.55 1024.58 1024.58 1024.79 1024.82 1024.94 1024.86 1024.94 1025.06 1024.98 1024.86 1024.70 1024.46 1024.22 1024.06 1023.95 1023.78 1023.66 1023.59 1023.51 1023.42 1023.30 1023.18 1023.15 1023.03 1022.71 1022.59 1022.54 1022.30 1022.18 1022.07 1021.83 1021.66 1021.59 1021.42 1021.22 1021.15 1021.07 1020.95 1020.74 1020.42 1020.15 1019.91
1019.47 1020.03 1020.51 1020.95 1021.15 1021.22 1021.30 1021.47 1021.62 1021.74 1021.83 1021.83 1021.98 1022.22 1022.30 1022.34 1022.54 1022.78 1022.86 1023.15 1023.59 1023.71 1023.91 1024.10 1024.27 1024.31 1024.34 1024.39 1024.27 1024.34 1024.55 1024.62 1024.67 1024.70 1024.82 1024.94 1024.94 1025.03 1025.03 1025.06 1024.98 1024.79 1024.70 1024.58 1024.43 1024.27 1024.06 1023.83 1023.66 1023.47 1023.34 1023.22 1023.10 1022.98 1022.91 1022.83 1022.47 1022.27 1022.18 1022.10 1022.03 1021.95 1021.66 1021.54 1021.42 1021.30 1021.22 1021.22 1021.18 1021.03 1020.78 1020.51 1020.10 1019.83
1019.03 1019.71 1020.27 1020.66 1020.83 1020.86 1020.91 1021.03 1021.15 1021.27 1021.47 1021.66 1021.98 1022.27 1022.30 1022.39 1022.66 1022.86 1023.07 1023.42 1023.59 1023.83 1024.06 1024.15 1024.15 1024.15 1024.19 1024.27 1024.34 1024.46 1024.55 1024.67 1024.70 1024.70 1024.74 1024.79 1024.86 1024.91 1024.94 1024.98 1024.94 1024.91 1024.86 1024.79 1024.62 1024.34 1024.15 1023.91 1023.74 1023.62 1023.47 1023.34 1023.15 1022.74 1022.62 1022.39 1022.34 1022.07 1022.03 1021.95 1021.86 1021.83 1021.62 1021.51 1021.42 1021.27 1021.18 1021.10 1021.07 1021.03 1020.78 1020.51 1020.18 1019.71
1018.62 1019.03 1019.54 1020.07 1020.30 1020.42 1020.59 1020.66 1020.78 1021.03 1021.27 1021.54 1021.95 1022.18 1022.27 1022.42 1022.62 1022.86 1023.30 1023.42 1023.59 1023.91 1024.03 1024.10 1024.10 1024.10 1024.10 1024.19 1024.27 1024.43 1024.46 1024.55 1024.62 1024.70 1024.79 1024.86 1024.91 1024.98 1024.98 1025.06 1025.03 1025.03 1024.94 1024.86 1024.70 1024.43 1024.27 1024.10 1023.95 1023.95 1023.91 1023.71 1023.59 1023.18 1022.62 1022.07 1021.98 1021.95 1022.03 1021.95 1021.83 1021.74 1021.62 1021.51 1021.39 1021.34 1021.27 1021.15 1020.95 1020.86 1020.78 1020.51 1020.10 1019.66
1018.22 1018.71 1019.18 1019.54 1019.83 1020.07 1020.22 1020.39 1020.59 1020.78 1021.07 1021.34 1021.71 1021.95 1021.98 1022.34 1022.59 1022.95 1023.27 1023.39 1023.54 1023.71 1023.86 1024.03 1024.10 1024.03 1024.10 1024.27 1024.31 1024.31 1024.43 1024.58 1024.74 1024.79 1024.91 1024.91 1024.94 1024.98 1025.06 1025.10 1025.15 1025.10 1025.10 1024.86 1024.62 1024.43 1024.27 1024.19 1024.06 1024.06 1024.06 1023.91 1023.71 1023.39 1022.66 1022.15 1021.98 1022.07 1022.03 1022.03 1021.91 1021.71 1021.59 1021.47 1021.42 1021.34 1021.18 1021.03 1020.78 1020.59 1020.39 1020.15 1019.91 1019.59
1017.98 1018.51 1018.91 1019.22 1019.51 1019.74 1019.95 1020.27 1020.51 1020.83 1021.10 1021.34 1021.51 1021.71 1021.83 1022.10 1022.47 1022.86 1023.03 1023.22 1023.47 1023.62 1023.78 1023.95 1023.98 1023.98 1024.06 1024.06 1024.19 1024.34 1024.43 1024.55 1024.67 1024.74 1024.82 1024.86 1024.98 1025.06 1025.15 1025.22 1025.22 1025.15 1025.03 1024.82 1024.62 1024.51 1024.31 1024.27 1024.19 1024.06 1024.10 1024.10 1023.78 1023.34 1022.91 1022.30 1022.39 1021.98 1021.98 1021.98 1021.86 1021.59 1021.51 1021.47 1021.39 1021.27 1020.98 1020.74 1020.66 1020.34 1020.18 1020.10 1019.91 1019.59
1017.71 1018.22 1018.66 1019.03 1019.22 1019.54 1019.98 1020.22 1020.54 1020.91 1021.18 1021.42 1021.62 1021.83 1021.98 1022.22 1022.54 1022.78 1022.98 1023.30 1023.59 1023.86 1023.95 1023.98 1023.91 1023.83 1023.86 1023.95 1024.10 1024.27 1024.39 1024.51 1024.62 1024.70 1024.82 1024.91 1025.03 1025.10 1025.19 1025.22 1025.27 1025.10 1025.03 1024.91 1024.70 1024.46 1024.27 1024.19 1024.06 1023.95 1023.91 1023.98 1023.86 1023.59 1023.42 1023.22 1022.66 1021.91 1021.62 1021.54 1021.62 1021.62 1021.39 1021.34 1021.18 1020.98 1020.91 1020.78 1020.59 1020.51 1020.30 1020.03 1019.71 1019.34
1017.66 1018.15 1018.47 1018.74 1019.15 1019.66 1020.03 1020.34 1020.62 1020.95 1021.27 1021.51 1021.66 1021.86 1022.10 1022.39 1022.59 1022.83 1023.15 1023.47 1023.66 1023.78 1023.83 1023.83 1023.71 1023.74 1023.91 1024.06 1024.15 1024.19 1024.27 1024.39 1024.55 1024.67 1024.86 1025.03 1025.15 1025.22 1025.27 1025.27 1025.27 1025.15 1024.98 1024.82 1024.62 1024.34 1024.15 1024.03 1023.86 1023.78 1023.83 1023.74 1023.54 1023.27 1023.07 1022.91 1022.54 1022.10 1021.74 1021.22 1021.18 1021.18 1021.10 1021.07 1021.07 1021.03 1021.03 1020.98 1021.03 1020.86 1020.42 1020.03 1019.83 1019.22
1017.74 1018.10 1018.47 1018.78 1019.27 1019.74 1020.15 1020.47 1020.74 1021.03 1021.30 1021.47 1021.78 1021.98 1022.15 1022.39 1022.74 1023.07 1023.30 1023.51 1023.62 1023.66 1023.66 1023.66 1023.66 1023.74 1023.91 1024.03 1024.10 1024.15 1024.22 1024.31 1024.51 1024.91 1025.22 1025.34 1025.39 1025.34 1025.31 1025.27 1025.22 1024.98 1024.86 1024.67 1024.43 1024.22 1024.03 1023.74 1023.54 1023.47 1023.42 1023.27 1023.03 1022.91 1022.86 1022.71 1022.34 1021.71 1021.34 1021.07 1021.15 1021.07 1021.03 1021.03 1021.10 1021.22 1021.42 1021.42 1021.34 1021.15 1020.78 1020.42 1019.95 1019.51
1018.07 1018.22 1018.54 1018.91 1019.30 1019.74 1020.15 1020.47 1020.74 1021.03 1021.27 1021.62 1021.91 1022.10 1022.30 1022.54 1022.86 1023.07 1023.22 1023.42 1023.54 1023.62 1023.78 1023.86 1023.74 1023.83 1024.06 1024.27 1024.34 1024.43 1024.55 1024.82 1025.06 1025.22 1025.31 1025.39 1025.39 1025.27 1025.19 1025.19 1025.15 1024.82 1024.70 1024.58 1024.31 1024.03 1023.62 1023.39 1023.27 1023.18 1023.07 1022.95 1022.78 1022.86 1022.66 1022.42 1022.18 1021.74 1021.39 1021.07 1021.10 1021.30 1021.22 1021.22 1021.27 1021.34 1021.51 1021.54 1021.47 1021.22 1020.78 1020.22 1019.91 1019.74
1018.78 1018.74 1019.30 1019.34 1019.51 1019.74 1020.07 1020.39 1020.71 1020.98 1021.27 1021.62 1021.98 1022.22 1022.34 1022.59 1022.83 1022.91 1023.10 1023.30 1023.42 1023.74 1023.86 1023.86 1023.98 1024.22 1024.43 1024.51 1024.55 1024.58 1024.70 1024.91 1025.06 1025.15 1025.15 1025.15 1025.10 1025.10 1025.10 1024.98 1024.82 1024.62 1024.43 1024.22 1023.91 1023.71 1023.51 1023.30 1023.10 1022.98 1022.91 1022.74 1022.54 1022.51 1022.51 1022.27 1022.03 1021.74 1021.42 1021.07 1020.91 1021.34 1021.47 1021.42 1021.39 1021.42 1021.51 1021.54 1021.54 1021.51 1021.34 1021.15 1020.95 1020.27
1018.98 1018.95 1019.22 1019.39 1019.62 1019.83 1020.07 1020.47 1020.91 1021.18 1021.42 1021.78 1022.10 1022.27 1022.34 1022.39 1022.66 1022.83 1022.95 1023.18 1023.54 1023.83 1023.95 1024.06 1024.27 1024.55 1024.67 1024.62 1024.58 1024.55 1024.67 1024.86 1024.91 1024.91 1024.94 1024.91 1024.91 1024.86 1024.86 1024.74 1024.58 1024.39 1024.15 1023.95 1023.78 1023.59 1023.34 1023.10 1022.91 1022.83 1022.78 1022.59 1022.34 1022.27 1022.27 1022.10 1021.86 1021.51 1021.30 1021.03 1020.83 1020.98 1021.18 1021.42 1021.54 1021.51 1021.42 1021.42 1021.42 1021.34 1021.18 1021.07 1021.03 1020.91
1019.03 1019.07 1019.18 1019.51 1019.78 1020.18 1020.47 1020.83 1021.22 1021.39 1021.47 1021.78 1022.07 1022.27 1022.34 1022.54 1022.78 1022.91 1023.15 1023.59 1023.86 1023.95 1024.15 1024.39 1024.67 1024.79 1024.82 1024.74 1024.67 1024.58 1024.58 1024.62 1024.74 1024.82 1024.82 1024.82 1024.79 1024.70 1024.62 1024.46 1024.31 1024.15 1023.98 1023.78 1023.74 1023.51 1023.22 1022.98 1022.71 1022.54 1022.42 1022.18 1022.03 1021.95 1021.83 1021.83 1021.66 1021.42 1021.15 1021.07 1020.95 1020.95 1021.10 1021.18 1021.34 1021.47 1021.51 1021.47 1021.51 1021.42 1021.30 1021.22 1021.10 1020.98
Wind_Speed
4 5 5 4 4 4 5 5 5 6 6 5 4 2 2 4 3 3 4 4 3 3 3 4 3 5 3 3 4 4 4 7 7 4 4 4 4 4 5 4 3 4 5 5 4 4 4 6 6 6 6 7 7 7 7 7 7 7 8 9 9 8 9 9 10 11 11 12 12 12 13 12 12 11
2 5 7 5 6 4 4 4 4 5 6 6 5 7 5 5 4 1 6 4 3 2 5 3 3 4 5 4 4 4 3 4 4 5 5 5 4 7 6 5 4 3 4 4 4 3 3 5 6 7 7 6 6 7 8 8 9 9 8 8 8 8 8 8 9 10 11 12 12 12 11 12 12 12
4 5 5 4 3 3 3 3 3 4 5 2 6 5 6 6 5 8 7 5 3 2 3 3 4 4 3 4 3 4 3 2 0 2 4 5 9 10 6 7 6 5 4 5 6 4 3 2 4 5 6 6 6 6 6 6 7 8 8 8 9 9 9 8 8 9 9 9 10 11 11 12 11 11
4 4 4 3 3 3 4 5 5 4 4 5 5 4 4 4 4 8 7 7 4 3 3 3 3 3 0 3 6 5 4 4 7 4 4 7 10 6 4 7 7 6 6 5 6 5 3 1 2 4 5 6 5 4 5 5 6 6 5 6 8 9 9 9 9 10 10 10 10 10 11 11 11 11
3 5 4 3 4 4 4 2 2 3 1 1 3 3 4 4 4 4 7 6 4 1 1 1 3 2 0 1 3 4 3 3 3 5 4 7 7 6 6 6 9 8 8 7 6 6 4 2 1 4 5 6 6 5 4 4 4 5 5 4 6 7 9 9 10 11 12 11 11 11 12 12 12 12
5 4 4 4 4 4 4 6 1 3 3 3 3 0 3 5 2 3 2 5 5 4 1 1 5 3 1 1 5 7 3 1 4 3 5 6 8 9 7 6 6 12 11 9 7 5 4 2 2 5 7 7 6 6 5 4 4 4 4 3 5 6 8 8 9 11 12 12 12 13 13 13 13 13
4 5 4 4 2 2 2 0 4 3 3 5 4 6 5 5 5 5 3 2 4 6 3 3 4 4 2 1 2 8 6 4 2 3 1 1 2 1 5 7 6 11 11 8 6 7 3 3 5 7 8 9 8 7 6 4 4 4 3 2 3 5 5 5 7 10 11 12 13 13 13 13 14 14
3 4 4 3 1 1 1 3 2 3 3 0 1 3 3 3 4 1 3 2 1 2 5 5 1 4 3 2 5 4 4 6 2 3 4 3 1 0 2 2 2 8 10 8 9 9 4 6 7 8 9 10 10 9 7 6 4 3 2 2 3 5 6 6 7 6 11 11 12 13 13 14 14 14
4 4 4 4 2 1 1 2 3 1 2 4 3 1 0 3 4 2 2 2 3 2 2 1 2 4 3 2 1 1 2 5 4 3 3 2 3 4 4 3 3 9 12 10 11 10 8 9 8 9 10 11 11 11 9 8 6 4 3 2 1 3 5 6 7 7 8 8 10 12 12 13 14 14
4 3 3 4 4 1 1 1 2 4 3 2 4 6 6 5 2 2 1 1 1 1 1 1 1 1 1 2 1 3 4 3 1 1 6 4 4 5 5 4 5 4 2 4 6 8 8 9 11 11 12 12 13 13 10 10 8 6 4 4 2 2 4 5 4 6 8 10 10 12 12 12 12 13
3 1 2 2 2 1 1 0 0 0 1 2 4 3 4 4 2 1 1 1 2 0 3 3 1 0 1 3 3 2 2 1 3 6 5 5 3 3 2 4 4 3 4 6 5 7 6 6 5 7 10 11 13 14 11 11 10 6 6 5 4 2 2 3 2 4 7 9 9 10 11 11 11 12
5 5 4 3 5 6 6 5 4 4 3 1 1 1 1 3 2 3 1 1 2 2 1 2 0 3 4 1 3 3 1 1 4 4 3 2 3 4 3 3 5 4 3 4 4 4 4 5 7 8 9 11 14 14 11 12 12 7 8 7 6 4 4 5 1 4 5 6 8 9 10 9 10 10
5 2 2 5 5 5 5 6 5 4 3 2 3 3 1 1 2 3 1 2 3 4 4 5 5 3 2 2 2 3 2 3 2 1 1 0 1 1 5 4 4 5 4 4 5 5 5 6 6 7 8 10 10 6 9 9 9 9 9 9 7 6 6 4 2 2 1 4 6 8 9 10 10 10
3 2 3 4 5 5 4 2 2 4 5 4 1 0 2 3 2 2 1 1 2 2 3 5 3 1 0 1 2 1 1 2 2 4 4 3 4 5 4 4 2 4 6 6 7 7 6 6 7 7 8 6 3 3 4 5 6 9 11 10 9 7 7 3 3 3 3 3 5 7 8 9 10 9
3 3 3 3 4 2 2 1 2 1 5 5 4 4 3 3 0 1 2 3 3 3 3 3 1 2 5 7 4 3 3 5 4 3 3 3 3 3 3 4 4 3 7 5 7 10 7 6 8 7 6 5 7 6 3 6 10 10 12 11 10 9 7 2 2 4 5 6 7 8 8 9 9 9
4 4 3 3 4 4 5 3 3 3 5 7 7 6 5 5 6 5 2 1 1 3 3 3 4 3 3 3 4 3 4 5 5 3 2 1 2 3 3 3 4 4 6 6 7 8 7 5 5 6 6 6 4 6 7 6 10 12 12 12 11 9 2 3 5 6 7 8 8 8 9 10 9 9
6 4 4 3 3 3 7 5 3 5 5 4 6 7 7 6 5 5 6 5 3 1 3 3 3 3 2 4 3 2 1 2 4 3 3 3 4 3 4 4 4 6 7 7 7 7 6 5 7 7 6 5 4 5 7 5 8 10 12 13 11 6 5 6 8 9 10 10 10 10 10 10 10 10
6 8 7 6 6 6 5 5 6 6 6 5 4 3 3 3 3 3 5 4 2 2 2 1 1 3 3 3 3 4 3 4 4 4 3 4 4 4 4 5 6 7 6 7 6 7 7 6 5 4 6 4 4 4 5 8 4 8 11 10 8 7 8 10 12 12 11 11 10 10 10 11 11 11
6 7 7 6 6 5 5 3 3 8 6 6 5 4 4 4 2 3 4 4 3 2 1 1 5 4 4 5 4 4 5 5 4 4 3 3 4 4 4 5 7 8 7 6 3 5 4 3 5 5 6 5 6 5 7 10 10 8 10 12 10 9 11 13 15 14 12 11 10 11 12 13 13 13
4 5 5 6 4 6 4 3 6 3 5 6 5 5 5 6 5 4 2 1 4 6 5 4 4 4 4 5 5 4 4 4 4 5 5 4 4 4 4 5 5 5 5 5 6 5 5 5 5 5 5 6 7 6 7 10 13 14 13 10 9 11 13 14 15 13 11 11 10 11 14 15 15 14
1 1 4 4 3 6 4 3 3 3 2 6 6 6 6 5 5 3 2 4 8 9 10 9 8 8 8 7 7 7 7 3 1 0 1 2 3 5 5 5 4 4 5 6 5 4 5 4 6 7 5 6 8 8 7 6 7 11 9 6 9 10 12 14 15 13 11 11 11 11 14 15 15 15
2 2 5 3 4 6 4 1 3 1 1 3 5 6 6 6 5 3 3 2 4 7 8 6 5 4 5 6 5 5 5 6 4 3 2 0 1 3 4 5 3 4 5 3 4 5 4 6 5 7 6 5 3 6 8 8 8 9 6 6 8 10 13 14 16 16 14 12 11 12 14 15 13 8
3 4 5 6 9 10 7 5 4 4 3 1 5 6 6 5 5 5 4 4 3 1 1 0 1 0 1 1 2 4 8 8 5 2 2 3 4 3 4 5 4 3 2 1 6 5 4 6 4 5 7 6 4 4 5 8 9 8 8 8 8 13 14 12 11 13 12 12 12 12 13 12 10 7
6 4 5 8 15 15 10 6 7 8 7 1 3 5 3 3 4 6 4 3 3 4 2 2 4 4 4 3 4 4 5 3 3 6 5 4 3 3 4 5 4 3 3 1 6 4 3 3 5 4 4 7 6 5 7 6 7 9 9 9 7 10 13 14 10 11 11 12 13 13 12 11 10 6
6 5 4 4 5 13 13 11 10 12 13 12 9 8 7 3 1 2 5 3 5 0 0 2 2 3 3 5 5 5 5 6 2 1 3 3 3 4 4 4 5 5 5 5 9 4 3 3 5 4 5 5 7 8 6 8 8 9 8 8 10 8 8 8 8 9 10 10 8 9 10 10 11 10
6 6 6 6 3 6 11 12 12 13 13 13 9 7 8 6 10 5 2 4 3 3 4 4 3 2 0 1 2 1 3 5 3 3 2 1 1 2 4 4 4 4 5 5 11 6 5 4 4 6 5 6 7 7 9 7 7 6 7 8 7 7 8 9 8 7 6 6 6 8 11 13 12 13
7 7 5 2 5 8 11 12 12 13 14 11 7 9 9 8 4 0 1 1 1 0 1 3 4 4 4 3 1 3 4 3 2 1 1 1 2 4 2 3 3 3 3 5 4 4 3 3 2 3 5 5 7 7 7 7 7 6 7 6 7 7 7 6 7 7 7 7 6 11 11 11 12 12
9 10 8 4 5 7 11 13 11 11 11 8 8 8 7 6 3 1 1 2 3 2 1 0 2 3 1 4 3 2 2 2 3 3 4 5 3 1 3 4 5 4 5 5 5 4 4 3 3 2 3 5 7 7 9 6 7 7 8 7 7 7 6 6 7 6 6 5 6 6 6 6 5 7
9 11 14 12 9 9 11 13 12 10 9 9 7 6 5 3 1 2 3 1 3 2 0 1 1 4 3 3 4 5 4 4 4 3 3 4 4 4 4 4 4 4 4 4 4 4 4 4 4 3 4 4 6 6 6 8 8 8 6 8 8 6 7 7 6 5 6 7 6 6 5 5 6 6
20 21 20 17 13 11 9 7 6 5 5 6 5 3 1 1 4 1 3 4 3 1 3 3 3 3 4 4 5 4 2 3 3 2 3 4 5 5 5 6 5 4 4 4 4 4 5 4 4 3 4 5 5 6 6 7 8 7 7 7 8 8 6 5 6 6 7 7 6 5 6 5 6 6
11 15 15 12 11 8 8 10 9 8 6 4 1 1 2 3 1 5 5 3 2 2 2 2 4 4 4 4 4 2 3 2 1 3 3 3 5 6 5 4 5 5 5 4 5 5 5 5 5 5 6 6 5 6 6 6 8 8 8 7 7 8 7 7 6 6 6 6 7 6 6 5 5 5
13 11 10 11 8 7 7 7 4 4 4 4 4 4 4 4 5 4 5 4 1 1 4 5 5 4 3 3 2 3 3 3 6 6 6 5 6 6 5 4 4 5 5 5 5 4 4 4 4 4 4 4 6 6 6 6 7 8 8 7 7 7 6 6 6 6 6 7 7 6 6 6 6 6
10 9 9 8 7 7 6 6 5 5 5 4 5 3 3 6 5 3 2 2 1 5 4 4 2 2 1 2 3 3 4 3 4 5 5 4 5 4 3 4 5 5 6 6 5 4 4 5 5 5 5 5 6 7 7 8 7 6 7 7 6 7 6 6 6 7 6 6 5 5 7 6 6 6
11 9 8 7 6 6 5 6 6 6 5 5 5 4 3 2 5 4 2 4 6 3 3 0 1 1 1 2 1 1 2 4 3 3 5 3 3 3 3 3 5 4 5 5 6 6 6 6 6 5 5 5 5 6 7 8 9 7 6 6 6 6 6 6 5 6 5 4 6 7 6 7 7 6
11 9 8 7 6 5 6 5 5 5 5 5 5 4 2 2 5 2 3 6 4 3 0 1 0 0 1 1 1 2 3 3 3 2 2 2 2 3 4 4 4 4 5 6 6 6 6 7 6 5 5 5 6 5 7 9 8 8 6 6 5 5 6 5 5 5 5 5 5 6 6 7 7 6
8 8 8 7 6 6 5 5 5 6 6 5 5 5 4 4 5 4 5 3 3 2 1 0 2 2 0 0 1 3 3 2 2 2 3 3 3 3 3 4 4 4 5 5 6 6 6 7 6 6 7 6 6 8 5 7 7 5 5 4 4 4 5 4 4 5 6 6 5 5 6 7 7 7
9 7 6 6 7 6 5 5 5 5 6 5 6 6 5 6 4 5 4 4 4 3 3 1 4 1 1 4 4 3 2 2 2 3 3 2 2 3 3 3 3 4 5 5 5 6 5 6 6 6 7 7 7 8 9 3 5 6 4 4 5 4 5 5 5 6 5 5 6 5 6 5 4 5
8 6 6 6 6 6 4 5 5 5 5 4 4 4 4 4 6 6 4 3 4 3 1 1 2 1 3 1 0 0 1 1 1 2 2 2 2 3 2 3 3 4 5 5 5 6 6 6 6 6 6 7 8 7 8 6 6 6 4 6 8 8 5 5 6 6 6 4 5 5 5 5 6 6
8 7 6 5 6 6 6 5 6 5 6 4 4 4 3 3 5 4 5 5 5 3 1 1 2 1 1 1 0 1 0 1 1 1 2 3 3 3 3 3 4 4 5 5 6 6 6 6 6 5 5 5 7 7 7 8 9 10 9 12 7 6 6 5 5 4 4 5 4 5 6 5 8 11
8 7 6 6 6 6 6 6 5 5 5 5 4 4 5 4 5 5 5 5 3 1 1 3 1 3 2 2 2 1 0 1 1 1 2 3 4 4 3 3 5 5 5 5 5 5 6 6 5 4 6 7 8 8 7 7 7 8 9 10 5 4 5 4 4 3 4 3 5 6 8 7 6 4
7 6 6 6 7 7 7 6 6 5 6 4 4 6 4 5 5 5 5 5 2 0 1 3 2 1 0 0 1 1 1 0 2 5 5 4 4 4 5 5 5 5 5 6 6 6 6 5 6 9 8 7 7 5 4 4 5 5 5 5 6 6 5 5 1 2 2 3 4 5 6 7 7 5
5 6 4 6 7 7 6 6 6 5 4 5 5 4 4 6 5 6 4 3 2 2 1 3 2 3 4 5 6 6 5 6 5 4 3 3 4 4 4 4 5 5 5 6 7 7 7 7 6 6 5 5 5 4 5 5 6 6 5 5 1 4 6 9 10 7 4 3 4 4 4 4 3 4
0 5 6 6 7 6 6 6 6 6 5 5 6 4 3 5 5 4 4 5 2 1 0 3 5 5 5 4 4 2 3 3 3 1 2 3 3 4 4 4 5 6 6 6 6 6 6 6 5 5 5 5 4 3 5 5 5 6 6 6 2 2 2 4 9 10 8 9 6 3 4 4 4 4
3 5 6 6 6 6 5 6 6 5 5 6 5 2 1 2 5 3 5 5 6 5 4 3 4 5 4 3 2 1 2 1 1 2 2 2 3 3 4 5 6 5 5 4 5 5 5 6 5 4 5 6 4 4 5 5 6 5 5 6 1 3 2 2 1 1 2 6 11 11 9 4 2 3
4 6 6 5 5 6 7 7 5 4 6 5 4 3 4 5 5 4 6 7 5 4 4 4 5 4 3 3 3 1 0 1 1 3 4 3 4 4 5 5 4 4 5 4 5 6 6 6 6 4 4 5 4 4 5 5 6 6 6 6 2 3 2 1 1 2 3 3 8 12 8 7 6 6
Wind_Direction
98 105 104 94 69 40 24 28 13 15 28 49 57 8 136 69 95 138 111 112 104 41 101 126 87 113 116 118 124 128 125 155 185 177 140 132 128 132 121 105 96 97 91 83 66 46 26 20 12 11 15 15 15 16 20 24 29 33 36 28 24 20 19 13 3 358 356 357 359 357 356 354 354 349
63 75 71 62 59 48 44 33 23 32 32 35 42 49 39 69 37 151 116 94 55 115 38 55 122 135 137 150 129 113 83 50 12 130 149 134 145 165 158 158 161 155 139 117 98 77 34 9 357 354 354 356 2 2 5 7 11 20 29 31 28 24 24 20 5 356 354 351 351 351 352 349 348 344
92 92 89 87 87 91 86 52 37 20 2 21 54 50 47 42 44 98 122 103 2 57 92 50 51 51 79 97 86 90 99 144 146 292 138 157 156 165 171 173 180 192 181 152 135 115 89 18 346 339 327 334 342 347 356 354 7 16 20 22 19 17 18 20 10 359 355 349 343 343 343 342 341 338
92 105 115 119 138 137 81 68 74 54 22 34 60 73 86 49 34 70 78 99 91 29 109 137 142 115 55 177 154 141 148 184 186 233 157 156 160 168 163 189 194 199 211 184 143 128 118 75 326 324 318 317 320 329 343 347 360 10 17 19 16 12 13 14 11 360 354 347 342 341 339 337 334 333
108 85 76 61 48 75 115 152 102 88 62 31 54 88 84 73 36 77 113 117 129 148 133 149 113 85 33 279 96 109 127 188 197 247 156 168 175 173 174 182 198 204 218 217 179 159 148 146 300 297 296 297 299 310 328 336 348 352 5 9 10 13 12 8 5 358 351 346 345 342 340 336 332 331
93 115 91 57 29 13 50 12 290 145 204 149 176 129 72 71 51 29 64 130 138 148 209 183 129 134 206 222 153 125 142 248 269 243 196 199 200 177 174 167 188 206 217 220 208 187 173 175 237 265 277 275 283 288 297 315 323 335 346 358 10 5 6 4 2 356 351 346 343 342 339 335 332 328
88 79 83 76 45 8 40 310 11 355 26 12 45 70 62 56 35 36 52 62 120 157 183 181 175 149 173 211 188 146 179 201 164 294 316 261 19 58 171 156 192 197 214 215 226 217 199 236 241 256 265 270 270 273 271 267 290 312 334 348 8 357 346 351 355 355 351 346 343 341 337 335 331 327
119 111 111 101 79 37 22 10 29 344 10 343 96 93 104 108 113 93 16 328 169 137 147 240 125 158 169 174 258 184 172 147 192 239 262 296 287 312 34 352 137 192 202 220 229 228 239 254 253 252 263 269 269 262 259 258 253 258 290 306 359 347 344 346 351 353 352 343 342 336 336 334 331 328
123 136 132 146 131 147 77 16 324 66 35 1 340 50 139 168 131 129 103 348 16 71 94 132 129 184 187 179 308 305 102 162 160 209 262 177 87 59 14 357 87 165 193 215 234 241 240 250 257 259 262 264 268 267 255 251 243 236 210 205 307 339 344 349 351 354 354 349 340 336 333 333 330 329
125 155 140 139 141 139 59 193 15 14 9 10 9 15 8 53 78 25 78 158 127 74 1 72 195 138 60 320 328 326 34 14 223 97 52 26 22 22 6 5 3 350 206 206 226 253 262 262 257 260 260 260 260 264 258 252 244 228 214 198 230 324 349 344 347 1 3 352 345 341 339 335 331 329
100 114 100 89 87 103 116 82 101 28 13 11 357 351 339 19 44 255 228 25 40 318 228 211 168 90 222 187 214 256 44 328 46 65 27 16 2 5 9 344 345 316 321 327 290 238 239 287 298 276 277 269 260 257 252 245 242 210 201 193 206 243 306 301 325 21 10 350 344 344 344 342 340 336
68 48 37 42 59 59 45 28 17 46 15 2 227 280 354 333 348 323 313 82 312 294 339 319 233 190 223 238 190 180 235 25 46 73 76 15 357 334 351 346 331 312 328 335 338 292 281 282 282 291 294 290 274 257 239 240 240 202 195 199 214 225 239 241 179 45 8 345 337 338 337 339 340 345
91 83 35 45 53 72 83 86 88 73 56 25 12 342 326 267 279 293 9 14 348 340 342 308 281 250 234 241 139 93 88 97 115 113 115 248 267 340 353 331 306 294 330 334 341 329 342 337 324 322 312 294 288 263 227 243 238 198 196 201 219 222 231 224 124 95 347 326 325 323 325 328 332 332
123 147 99 94 72 37 25 46 109 118 87 76 81 57 4 0 347 288 215 240 254 274 272 265 296 330 218 51 106 167 163 135 95 52 38 15 345 354 321 299 299 350 9 356 333 316 320 317 310 302 292 298 306 268 215 227 208 194 194 203 211 216 221 201 129 182 207 256 283 295 305 312 316 318
174 163 172 149 130 140 196 207 232 85 125 111 118 96 86 80 63 4 297 192 230 262 271 290 7 58 28 2 344 35 63 58 80 66 38 5 338 318 326 309 318 11 29 345 320 307 311 313 299 294 299 312 302 297 308 210 198 190 194 205 211 213 218 146 219 227 223 230 247 262 275 284 292 299
172 174 172 189 182 173 181 194 192 135 118 125 113 108 113 101 80 84 82 8 55 51 7 354 4 42 55 69 49 31 42 22 29 32 25 332 340 336 343 321 306 313 2 324 307 296 300 293 288 294 289 281 293 317 325 190 192 195 200 211 216 220 196 221 237 243 240 237 238 243 249 254 257 262
168 174 187 203 219 208 196 213 219 155 133 106 111 116 100 83 83 98 73 64 82 58 63 13 25 63 15 57 56 43 39 33 31 13 7 9 3 359 331 302 310 313 310 303 286 282 285 287 277 271 265 269 284 284 302 285 209 204 209 217 222 208 208 235 245 241 243 241 241 243 248 252 255 257
168 179 187 194 202 204 177 180 219 154 154 144 132 144 157 121 109 118 120 113 96 103 87 44 24 69 45 80 78 53 43 49 32 24 353 359 344 324 286 286 286 279 282 276 281 282 276 260 270 281 287 294 290 296 302 328 292 233 233 238 227 212 219 232 240 241 239 243 248 255 260 262 262 265
191 185 188 196 201 192 190 172 176 148 150 152 157 163 163 143 129 67 45 30 7 6 35 52 67 62 50 61 54 34 31 40 39 37 5 341 309 296 288 281 263 268 262 261 253 273 289 318 331 310 314 324 325 328 334 336 330 287 254 243 226 219 229 237 241 240 237 241 251 261 265 267 269 269
195 196 178 186 211 165 132 108 104 95 150 157 162 168 140 103 92 80 61 26 50 66 69 66 73 87 95 85 79 65 44 43 37 18 6 335 304 311 318 306 325 313 308 329 330 315 322 324 312 319 325 342 332 335 333 321 303 298 290 259 229 230 239 248 253 251 244 244 251 259 266 270 272 274
264 127 166 173 116 93 90 356 43 84 185 161 171 151 128 122 111 114 134 85 67 76 84 92 96 98 91 89 95 79 75 97 133 253 328 305 23 354 315 299 303 299 351 329 351 352 322 339 345 332 339 338 328 318 306 301 319 344 333 272 247 253 264 272 278 280 265 254 253 260 267 270 273 282
136 83 47 360 139 121 92 256 83 331 300 178 150 137 132 133 126 133 146 129 66 67 67 72 87 93 90 95 89 117 153 181 173 156 189 270 27 271 268 284 305 310 310 293 31 11 318 339 343 328 319 319 310 332 330 336 347 352 339 298 277 278 281 284 287 283 271 263 260 263 271 274 289 307
172 100 54 68 125 116 141 143 99 60 32 274 154 143 147 151 158 156 156 130 121 145 146 145 138 125 121 190 195 216 214 212 207 232 236 226 206 243 276 280 288 299 281 344 44 16 322 351 331 348 330 313 320 304 319 335 333 341 346 344 342 333 331 329 317 306 289 274 270 268 275 287 299 287
147 111 108 102 114 113 103 87 87 63 56 9 133 134 142 151 133 136 128 126 154 166 191 168 181 201 183 200 215 228 225 211 204 214 226 228 239 258 280 292 301 286 284 335 34 15 310 7 323 353 319 316 318 339 333 328 345 343 342 340 340 336 337 340 340 324 298 277 274 272 274 287 286 269
145 139 107 76 69 111 116 111 89 79 71 73 76 81 85 94 199 114 124 116 101 125 252 275 248 248 197 196 210 232 216 213 187 250 290 296 320 7 355 344 342 315 319 322 8 0 320 354 321 351 331 330 320 322 339 334 331 326 329 340 332 330 336 338 337 332 331 327 304 291 275 272 298 332
62 57 52 66 8 80 103 100 92 88 85 83 83 84 94 73 61 60 103 148 182 182 205 218 219 212 293 338 272 286 84 107 139 182 178 184 346 294 266 258 267 285 306 349 14 4 359 352 2 346 335 328 318 323 317 314 306 312 331 318 314 324 334 327 322 323 332 333 336 335 333 337 336 333
117 97 102 127 152 129 109 102 103 99 92 82 93 96 74 69 48 328 226 117 100 41 5 40 23 349 304 277 319 51 53 57 41 353 326 303 268 262 285 355 353 337 344 349 350 340 349 304 11 345 315 310 304 307 298 308 314 319 307 313 321 319 315 311 320 326 324 322 325 333 337 336 331 332
128 139 138 136 176 130 108 96 87 88 92 105 100 79 72 54 53 7 328 172 192 179 123 119 244 248 22 35 15 37 64 3 340 308 276 264 280 352 23 14 1 351 346 349 344 335 328 318 324 292 287 298 300 303 304 295 291 307 310 311 310 310 307 318 312 302 303 321 329 329 331 327 330 328
149 133 130 143 153 117 104 105 101 91 91 93 85 78 54 13 309 238 227 83 70 42 307 238 46 36 36 46 38 18 16 354 336 337 1 15 4 16 14 14 357 350 347 337 334 325 324 318 301 299 293 291 292 293 294 298 305 303 313 318 310 311 312 302 292 303 319 318 307 313 308 322 317 319
141 145 147 147 138 130 128 117 112 115 117 107 86 70 6 268 254 245 66 45 58 42 30 45 43 34 33 30 20 333 332 32 356 30 14 8 348 1 6 357 333 324 322 314 316 317 311 306 294 293 294 287 285 291 294 303 299 301 304 297 295 297 286 305 314 314 313 311 310 304 296 293 296 300
139 141 143 148 147 145 130 116 111 113 117 104 113 169 201 237 50 69 69 71 45 19 9 41 43 29 30 10 330 327 19 326 328 42 20 13 1 9 349 351 331 330 320 323 313 307 305 301 298 293 288 287 282 275 281 279 285 291 291 291 299 296 303 302 304 314 317 317 317 312 304 301 298 297
149 141 130 126 124 123 115 118 123 136 158 167 162 194 196 135 103 106 82 58 26 321 64 48 44 20 357 305 319 336 329 4 21 25 24 19 355 359 355 341 322 318 307 297 289 286 293 296 297 290 276 283 289 288 280 274 276 283 288 290 291 291 301 312 315 315 317 315 309 313 323 319 312 316
134 135 134 133 140 145 141 145 151 166 174 196 183 164 127 130 141 129 134 167 114 60 52 53 47 298 292 350 347 360 24 22 17 25 21 356 345 337 350 313 306 310 311 314 319 320 321 314 307 303 301 296 285 286 287 286 274 270 275 282 287 291 294 301 309 309 313 307 307 321 313 308 304 304
138 141 136 145 151 156 158 159 163 167 174 150 109 88 59 39 77 86 84 85 86 84 69 34 250 236 71 276 278 8 36 23 26 15 23 334 327 315 310 314 302 303 311 317 326 318 311 299 293 290 289 288 284 282 281 276 280 279 274 278 283 288 293 298 300 305 312 320 318 308 306 303 302 297
137 139 140 152 159 161 158 166 165 157 142 138 130 128 144 120 109 113 94 83 80 73 90 270 240 257 238 284 35 53 43 45 10 333 299 298 312 306 307 303 312 321 325 320 314 315 314 310 312 310 305 303 302 281 267 270 281 278 281 284 285 289 298 303 307 309 317 312 310 298 296 295 298 295
131 137 141 152 160 160 162 179 164 144 146 157 145 144 156 141 132 128 94 114 105 133 188 24 324 286 220 68 71 63 43 18 318 316 341 337 338 327 334 322 326 324 323 317 312 311 315 314 321 316 312 309 305 301 296 256 252 265 287 285 289 293 294 301 306 306 307 302 295 291 288 291 292 298
131 134 139 148 156 161 173 163 138 139 136 132 134 155 149 137 140 116 141 159 155 154 129 179 254 245 59 52 38 30 14 20 356 4 347 330 325 316 313 315 320 323 315 302 305 304 311 313 313 311 309 307 303 300 294 308 321 327 311 302 294 282 287 292 300 299 288 284 288 286 284 280 291 300
130 135 141 147 156 172 150 126 121 117 119 116 114 99 94 122 127 132 144 120 110 88 56 24 304 54 80 69 68 334 39 6 3 321 302 315 321 330 335 324 315 305 300 300 307 309 307 304 303 301 302 298 299 296 302 317 311 285 287 299 292 289 291 292 291 282 290 281 280 291 315 319 308 309
126 132 139 148 153 136 121 121 118 123 119 121 115 118 137 115 101 106 97 91 83 71 18 306 276 81 32 301 73 104 12 312 316 337 1 352 345 334 330 325 311 300 303 303 299 291 292 290 290 291 293 303 300 301 306 305 298 302 301 284 268 277 278 270 276 286 292 305 317 330 306 285 293 288
118 124 133 125 114 106 106 109 112 118 120 123 144 147 120 107 118 106 93 95 100 150 183 244 241 64 7 46 15 349 29 43 43 21 13 1 4 353 338 327 313 304 297 291 294 293 295 293 292 304 307 288 281 274 274 273 279 284 279 295 318 227 254 264 284 312 315 343 332 315 307 314 305 300
118 128 133 124 115 112 112 119 122 116 122 132 92 84 100 109 94 93 105 108 112 358 35 349 43 82 248 125 280 356 313 61 53 49 39 14 351 337 321 313 303 294 295 295 293 294 289 287 285 282 280 276 272 281 284 275 283 293 307 296 2 27 71 57 63 45 2 335 318 303 303 304 297 314
70 116 118 115 118 118 127 130 121 126 123 106 111 103 90 98 112 134 135 148 149 69 29 298 346 27 29 27 15 17 24 43 49 42 27 329 299 299 300 295 291 290 289 293 294 289 288 292 288 288 284 286 285 282 276 283 290 297 291 302 17 25 71 89 84 84 87 23 344 326 316 302 340 323
35 105 94 112 114 126 128 130 127 117 107 105 105 111 131 145 135 171 168 168 177 147 99 21 29 42 38 25 20 26 50 48 52 347 278 273 277 289 293 285 280 286 285 284 283 284 292 293 293 296 295 291 279 259 280 278 280 282 286 292 251 128 71 97 116 110 90 56 32 334 280 282 313 308
228 128 129 111 117 125 132 111 104 109 105 100 108 140 211 123 124 106 69 81 85 66 41 35 37 44 22 351 327 325 78 80 293 274 293 301 295 287 286 290 284 280 286 290 296 298 295 296 293 290 296 289 281 280 275 279 279 275 282 289 308 120 151 186 150 195 101 48 20 8 2 344 281 311
155 107 101 94 83 80 82 96 114 115 99 112 136 124 81 69 68 74 84 75 67 47 43 50 51 26 3 325 313 305 148 110 46 29 349 314 300 294 281 277 289 303 305 307 312 307 307 305 302 291 270 276 272 267 276 265 271 281 282 288 282 134 120 98 76 40 13 359 16 11 15 33 45 49